Погода в Ашхабаде

Погода в Ашхабаде : погода сейчас, прогноз погоды и архив. Всё, что Вы хотите узнать о погоде в Ашхабаде!

Поиск расширенной информации на нашем сайте:

Другие новости

Новости СМИ2

Главная страница сайта

Новости сайта

03.07.2017

Напоминаем, что на нашем специализированном сайте Метеоцентр.Азия вы можете получить высокодетализированные автоматические прогнозы погоды по пунктам России, СНГ и мира в авиационном формате (включающие направление и скорость ветра, видимость, явления погоды, количество и форму облачности, нижнюю и верхнюю границу облачности).

Рекомендуем: вред курения

Погода в Ашхабаде - сегодня

Время (UTC), дата Ветер
(°,м/с) 
Видим.   Явления Облачность Т
(°С)
Тd
(°С)
f(%) Тe
(°С)
Pmin
(гПа)
dP
(гПа)
Po
(мм)
O2
(г/м3)
Тmin Tmax R s Состояние
почвы
21 16.10.18 100 (В) 10 км    5/3 1500 м средняя 
[Sc|Ac trans]
+9.2 -3.3 41 +10  1030.7  -0.5  754  294           
00 17.10.18 070 (В) 10 км    3/0 средняя 
[Ac trans]
+8.2 -4.1 42 +8  1030.6  -0.2  754  295           
03 17.10.18 090 (В) 10 км    3/0 верхняя 
[Ci fib]
+6.6 -0.1 62 +6  1031  0.2  754  297           
06 17.10.18 080 (В) 10 км    3/0 верхняя 
[Ci fib]
+12.6 -1.4 38 +12  1030.4  -0.1  754  290  +6         
09 17.10.18 110 (В) 10 км    1/0 средняя 
[Ac trans]
+15.5 +0 35 +15  1028.2  -1.9  752  287           
12 17.10.18 090 (В) 10 км    1/1 1500 м 
[Sc]
+17.1 -0.7 30 +18  1026.5  -1.5  751  285           
15 17.10.18 100 (В) 10 км    ясно 
+14.2 -2.5 31 +14  1026.9  0.1  751  288    +17.5       
18 17.10.18 100 (В) 10 км    ясно 
+11.8 -1.2 40 +12  1026.5  -0.6  751  290    +17.5       
21 17.10.18 120 (ЮВ) 10 км    ясно 
+9 +0 53 +10  1025.9  -1.4  750  292           
00 18.10.18 100 (В) 10 км    3/0 средняя 
[Ac trans]
+7.6 +1.7 66 +8  1024.7  -0.7  749  293           
03 18.10.18 130 (ЮВ) 10 км    3/0 верхняя 
[Ci fib]
+7.8 +1.5 64 +9  1024.1  -0.5  749  293           
06 18.10.18 080 (В) 10 км    3/0 верхняя 
[Ci fib]
+15.8 +2.5 41 +17  1023.9  0.5  749  285  +6.7         
09 18.10.18 060 (СВ) 10 км    3/1 1500 м верхняя 
[Sc|Ci fib]
+19.6 +2.3 32 +20  1022.6  -1  749  281           
12 18.10.18 360 (С) 10 км    1/0 средняя 
[Ac trans]
+20 +2.3 31 +20  1021.9  -0.6  748  280           
15 18.10.18 010 (С) 10 км    ясно 
+16.4 +2.9 40 +17  1022.7  0.5  748  284    +20.6       
18 18.10.18 190 (Ю) 10 км    ясно 
+13.2 +4.5 56 +14  1023.3  0.3  749  287    +20.6       
21 18.10.18 180 (Ю) 10 км    ясно 
+11.2 +4.6 64 +11  1022.9  -0.6  748  289           
00 19.10.18 230 (ЮЗ) 10 км    ясно 
+9.8 +4 67 +11  1022.8  -0.2  748  290           
03 19.10.18 210 (ЮЗ) 10 км    ясно 
+10.4 +4.8 68 +12  1023.7  0.9  751  291           
06 19.10.18 090 (В) 10 км    ясно 
+17.8 +3.4 38 +18  1025  1.9  750  283  +9.4         
09 19.10.18 110 (В) 10 км    ясно 
+21.1 +0.9 26 +21  1023.6  -1.1  749  280           
12 19.10.18 080 (В) 10 км    ясно 
+21.6 +1.9 27 +22  1022.7  -0.8  749  279           
15 19.10.18 120 (ЮВ) 10 км    ясно 
+17.8 +3.8 39 +18  1023.6  0.5  749  283    +22       
18 19.10.18 тихо ()   10 км    ясно 
+13.8 +5.3 56 +14  1024  0.1  749  287    +22       
21 19.10.18 140 (ЮВ) 10 км    ясно 
+11 +4.8 66 +12  1023.2  -1  748  289           
Время (UTC), дата Ветер
(°,м/с) 
Видим.   Явления Облачность Т
(°С)
Тd
(°С)
f(%) Тe
(°С)
Pmin
(гПа)
dP
(гПа)
Po
(мм)
O2
(г/м3)
Тmin Tmax R s Состояние
почвы

Для получения пояснительной информации подведите курсор к названию столбца.

ПОГОДА в Ашхабаде - архив

Всё, что Вы хотите узнать о погоде в Ашхабаде - удобно и подробно!

Выберите нужную дату (начиная с 1 января 2015* года) и нажмите кнопку "Найти".
Будут отображены архивные сводки погоды по пункту Ашхабад, начиная с указанной даты.


Отображать данные в формате CSV (для использования в таблицах Excel)


Внимание! Наш архив погоды предназначен исключительно для личного некоммерческого использования в познавательных целях. Если Вам необходимы официальные справки о состоянии погоды (для производственных, юридических, коммерческих и т.п. целей), обращайтесь в органы Росгидромета.

*Примечание: данная дата относится к архиву по метеостанциям СССР (Россия, СНГ, Балтия).
Архив по метеостанциям Зарубежной Европы и Азии (кроме Китая) хранится 10 дней, по другим регионам земного шара (Китай, Африка, Америка, Австралия, Океания) - 1 день.

Ашхабад - район местоположения метеостанции


Название, широта, долгота, высота метеостанции:
Ашхабад (город) 38°ш. 58.3°д. 208 м над ур. моря [Туркменистан]

Дополнительная информация

В oтличие oт бoльшинства пoгoдных сайтoв мы публикуем пoдрoбную метеoинфoрмацию в детальнoм прoфессиoнальнoм фoрмате.

Характеристики температуры и влажнoсти вoздуха измеряются на высoте 2 м в тени вдали oт зданий и деревьев.
Скoрoсть ветра измеряется на высoте 10 м (на урoвне рoста челoвека скoрoсть ветра ниже в 1.5-2 раза). Если метеoстанция нахoдится в гoрoде или в лесу, тo скoрoсть ветра занижена на 2-4 м/с пo сравнению с oткрытым местoм. Скoрoсть ветра над акватoриями крупных рек и oзёр, а также на вершинах хoлмoв на 2-5 м/с выше, чем в oбычных услoвиях.
Атмoсфернoе давление в разных тoчках местнoсти мoжет значительнo oтличаться oт давления на метеoстанции, в зависимoсти oт услoвий рельефа (при пoдъёме на 10 м давление пoнижается примернo на 1 мм рт.ст.).